QFA846 PAVD-PAJN

Flight info

Callsign QFA846
Flight time N/A
Altitude 35000
Route JOH J501 YAK J541 SSR
Aircraft B738/M-SDE2E3FGHIRWXY/LB1

Departure

Time N/A
Airport Valdez Pioneer Field (PAVD)

Arrival

Time 2026-04-08 11:33
Airport Juneau International Airport (PAJN)
Time Latitude Longitude Altitude Speed Heading
2026-04-08 11:31 58.33712 -134.74483 2707 ft 186 kts 74°
2026-04-08 11:31 58.34062 -134.72194 2256 ft 176 kts 69°
2026-04-08 11:31 58.34467 -134.70067 1868 ft 165 kts 66°
2026-04-08 11:32 58.34892 -134.68042 1520 ft 165 kts 65°
2026-04-08 11:32 58.35326 -134.66027 1190 ft 164 kts 65°
2026-04-08 11:32 58.35718 -134.64031 808 ft 157 kts 71°
2026-04-08 11:32 58.35884 -134.61993 361 ft 158 kts 84°
2026-04-08 11:33 58.35774 -134.59891 59 ft 158 kts 98°
2026-04-08 11:33 58.35563 -134.58050 30 ft 119 kts 107°
2026-04-08 11:33 58.35387 -134.56867 30 ft 68 kts 104°
2026-04-08 11:33 58.35302 -134.56281 30 ft 32 kts 104°
2026-04-08 11:34 58.35248 -134.55888 30 ft 30 kts 102°
2026-04-08 11:34 58.35289 -134.55583 30 ft 25 kts 352°
2026-04-08 11:34 58.35366 -134.55855 30 ft 25 kts 284°
2026-04-08 11:34 58.35410 -134.56182 30 ft 27 kts 286°
2026-04-08 11:35 58.35463 -134.56566 30 ft 32 kts 284°
2026-04-08 11:35 58.35524 -134.57006 30 ft 36 kts 285°
2026-04-08 11:35 58.35595 -134.57490 30 ft 39 kts 285°
2026-04-08 11:35 58.35666 -134.58013 30 ft 42 kts 285°
2026-04-08 11:36 58.35737 -134.58507 30 ft 28 kts 295°
2026-04-08 11:36 58.35812 -134.58524 30 ft 12 kts 51°
2026-04-08 11:36 58.35843 -134.58453 30 ft 0 kts 48°